STARLINK-35831, 66374

Orbit data source: Space-Track

STARLINK-35831, 66374 is a payload satellite owned by SpaceX/Seattle (US) in LEO that was launched on Thu, 06 Nov 2025 UTC via an FALCON 9 launch vehicle from the Air Force Western Test Range (AFWTR). Payload-class satellites include a variety of spacecraft equipped with specific instruments for various scientific and technological missions. These include communications satellites like Starlink; space stations such as the ISS; scientific satellites like the Hubble; Earth observation satellites from companies like Planet Labs, Umbra, and HawkEye 360; GPS; miniature CubeSats for education and research; and military/defense satellites.

Loading next visibility...
Identifier
66374, 2025-254AC
Orbit
LEO
Country
Flag of USUS
Related business
Manufacturer
SpaceX/Seattle
Mission
Operational Commercial Communications
Bus & Motor
STARLINK V2MO, Unknown motor
Mass
575 kg wet, ~530 kg dry
Launch date (UTC)
2025-11-06 (7 months ago)
Launch vehicle
FALCON 9
Launch site
Air Force Western Test Range (AFWTR)
Object type
Payload
Rocket body
Debris
Shape & HBR
Box + 2 Pan, 17.7 m
Radar Cross Section
36.964 m², Large (>1 m²)

Expand to show TLE details & history
Last TLE update: 1 day ago

TLE from 1 day ago
0 STARLINK-35831
1 66374U 25254AC  26170.58408682  .00015738  00000-0  47595-3 0  9998
2 66374  53.1581 115.7428 0001335 100.8366 259.2787 15.34399791 34621
Epoch: 2026-06-19T14:01Z
TLE epoch observation values (Epoch: 2026-06-19T14:01:05.101Z)
Latitude
Longitude
-2.33942°
Altitude
463.775 km
Speed
7.636 km/s
True Right ascension
07h 42m 58s
True Declination
0° 00' 00"
Sunlit
Object was in daylight at epoch
Visualization orbit readout
Latitude
Unknown
Longitude
Unknown
Altitude
Unknown
Speed
Unknown
Apparent Right ascension
Unknown
Apparent Declination
Unknown
Sunlit
N/A
Visualization observer readout
Local Sidereal Time
07:16:50
Azimuth
Unknown
Elevation
Unknown
Doppler factor
Unknown
Orbital elements
Apogee altitude
463.874 km
Perigee altitude
462.048 km
Semi-major axis
6,841.098 km
Eccentricity
0.00013
Inclination
53.1581°
RAAN
115.7428°
Arg. of periapsis
100.8366°
True anomaly
259.26367°
Mean anomaly
259.2787°
Eccentric anomaly
259.27118°
Mean motion
3.83579 °/min
Orbital period
93.85 mins
BSTAR
0.00047595
Loading maneuver chart data...
Computing Atmospheric mass density...
Loading historical data...
Loading historical data...
Loading historical data...
Loading historical data...
Loading historical data...
Loading historical data...
Loading historical data...

Documentation

Showing up to 5 results
|